Location: Bergnershof
(48.9468°N, 10.9431°E)
Time: 00:00:49
(UTC+00:00)

COSMOS 2428 - Pass Details

Date: 03 March 2021
Orbit: 845 x 858 km, 70.9° (Epoch: 13 April)

Event Time Altitude Azimuth Distance (km) Brightness Sun altitude
Rises 19:17:19 0° 193° (SSW) 3,392 5.8 -22.6°
Reaches altitude 10° 19:19:47 10° 189° (S) 2,462 5.0 -23.0°
Enters shadow 19:24:47 55° 135° (SE) 1,012 2.7 -23.8°
Exits shadow 19:32:04 - 33° (NNE) 2,932 5.4 -24.9°
Sets 19:33:22 0° 32° (NNE) 3,425 5.8 -25.1°
